CMT25W EBBR-EPKT

Flight info

Callsign CMT25W
Flight time 1h 47m
Altitude 41000
Route SOPOK Y863 ROPUV L607 EMGOD DCT BOMBI DCT KOMIB L984 OKG DCT SOPAV DCT BAVOK
Aircraft A359/H-SDE2E3GHIJ3J4J5LM1ORWXY/LB1D1

Departure

Time 2026-05-07 14:47
Airport Brussels Airport (EBBR)

Arrival

Time 2026-05-07 16:34
Airport Katowice Wojciech Korfanty International Airport (EPKT)
Time Latitude Longitude Altitude Speed Heading
2026-05-07 14:18 50.90072 4.49192 55 ft 0 kts 335°
2026-05-07 14:39 50.90053 4.49206 138 ft 4 kts 334°
2026-05-07 14:39 50.90033 4.49221 138 ft 2 kts 340°
2026-05-07 14:39 50.90009 4.49230 139 ft 4 kts
2026-05-07 14:39 50.89984 4.49219 140 ft 4 kts 37°
2026-05-07 14:40 50.89968 4.49189 141 ft 4 kts 72°
2026-05-07 14:40 50.89966 4.49181 141 ft 0 kts 76°
2026-05-07 14:43 50.89966 4.49183 141 ft 1 kts 76°
2026-05-07 14:43 50.89971 4.49210 141 ft 5 kts 76°
2026-05-07 14:43 50.89990 4.49283 139 ft 10 kts 66°
2026-05-07 14:43 50.90032 4.49393 137 ft 13 kts 44°
2026-05-07 14:44 50.90123 4.49454 136 ft 16 kts 16°
2026-05-07 14:44 50.90240 4.49506 132 ft 20 kts 15°
2026-05-07 14:44 50.90384 4.49564 129 ft 23 kts 13°
2026-05-07 14:44 50.90543 4.49628 127 ft 24 kts 14°
2026-05-07 14:45 50.90712 4.49697 125 ft 26 kts 14°
2026-05-07 14:45 50.90833 4.49747 128 ft 16 kts 14°
2026-05-07 14:45 50.90942 4.49811 125 ft 17 kts 37°
2026-05-07 14:45 50.91053 4.49919 121 ft 20 kts 22°
2026-05-07 14:46 50.91121 4.49906 121 ft 4 kts 301°
2026-05-07 14:46 50.91125 4.49847 121 ft 8 kts 258°
2026-05-07 14:46 50.91075 4.49665 121 ft 46 kts 246°
2026-05-07 14:46 50.90831 4.48821 122 ft 120 kts 245°
2026-05-07 14:47 50.90401 4.47334 300 ft 163 kts 246°
2026-05-07 14:47 50.89944 4.45762 1180 ft 160 kts 246°
2026-05-07 14:47 50.89482 4.44157 1913 ft 170 kts 246°
2026-05-07 14:47 50.88947 4.42307 2225 ft 202 kts 246°
2026-05-07 14:48 50.88312 4.40112 2561 ft 235 kts 246°
2026-05-07 14:48 50.87599 4.37654 3193 ft 252 kts 245°
2026-05-07 14:48 50.86856 4.35093 4059 ft 258 kts 245°
2026-05-07 14:48 50.86111 4.32470 4954 ft 264 kts 248°
2026-05-07 14:49 50.85455 4.29735 5888 ft 266 kts 245°
2026-05-07 14:49 50.84400 4.27345 6884 ft 267 kts 223°
2026-05-07 14:49 50.82806 4.25866 7866 ft 269 kts 197°
2026-05-07 14:49 50.80936 4.25666 8823 ft 274 kts 171°
2026-05-07 14:50 50.79197 4.26848 9775 ft 281 kts 144°
2026-05-07 14:50 50.77938 4.29265 10521 ft 296 kts 117°
2026-05-07 14:50 50.77211 4.32449 10904 ft 321 kts 107°
2026-05-07 14:50 50.76594 4.35981 11256 ft 345 kts 106°
2026-05-07 14:51 50.76167 4.38418 11604 ft 355 kts 106°
2026-05-07 14:51 50.75250 4.43484 12663 ft 364 kts 107°
2026-05-07 14:51 50.74531 4.47350 13509 ft 370 kts 107°
2026-05-07 14:51 50.73792 4.51281 14292 ft 375 kts 107°
2026-05-07 14:52 50.73285 4.53964 14793 ft 379 kts 107°
2026-05-07 14:52 50.72529 4.57937 15529 ft 383 kts 107°
2026-05-07 14:52 50.71758 4.61986 16259 ft 388 kts 107°
2026-05-07 14:52 50.70962 4.66094 17036 ft 393 kts 108°
2026-05-07 14:53 50.70148 4.70251 17791 ft 398 kts 108°
2026-05-07 14:53 50.69335 4.74397 18559 ft 403 kts 108°
2026-05-07 14:53 50.68499 4.78653 19282 ft 407 kts 108°
2026-05-07 14:53 50.67655 4.82950 20013 ft 411 kts 108°
2026-05-07 14:54 50.66805 4.87274 20749 ft 415 kts 108°
2026-05-07 14:54 50.65942 4.91646 21462 ft 420 kts 108°
2026-05-07 14:54 50.65068 4.96069 22171 ft 424 kts 108°
2026-05-07 14:54 50.64184 5.00529 22901 ft 428 kts 108°
2026-05-07 14:55 50.63289 5.05039 23653 ft 433 kts 108°
2026-05-07 14:55 50.62383 5.09593 24220 ft 438 kts 108°
2026-05-07 14:55 50.61467 5.14185 24816 ft 441 kts 108°
2026-05-07 14:55 50.60553 5.18757 25455 ft 445 kts 108°
2026-05-07 14:56 50.59617 5.23428 26039 ft 448 kts 108°
2026-05-07 14:56 50.58618 5.28116 26568 ft 452 kts 114°
2026-05-07 14:56 50.56949 5.32279 27135 ft 452 kts 132°
2026-05-07 14:56 50.54592 5.35542 27698 ft 452 kts 147°
2026-05-07 14:57 50.51995 5.38368 28259 ft 456 kts 146°
2026-05-07 14:57 50.49460 5.41423 28782 ft 461 kts 142°
2026-05-07 14:57 50.47001 5.44715 29311 ft 465 kts 140°
2026-05-07 14:57 50.44626 5.48100 29828 ft 469 kts 139°
2026-05-07 14:58 50.42238 5.51622 30295 ft 473 kts 138°
2026-05-07 14:58 50.39854 5.55201 30696 ft 476 kts 137°
2026-05-07 14:58 50.37463 5.58824 31055 ft 481 kts 137°
2026-05-07 14:58 50.35055 5.62488 31436 ft 484 kts 137°
2026-05-07 14:59 50.32622 5.66196 31827 ft 487 kts 137°
2026-05-07 14:59 50.30184 5.69913 32168 ft 490 kts 137°
2026-05-07 14:59 50.27838 5.73818 32499 ft 495 kts 130°
2026-05-07 14:59 50.25851 5.78256 32796 ft 500 kts 121°
2026-05-07 15:00 50.24386 5.83145 33107 ft 504 kts 110°
2026-05-07 15:00 50.23315 5.88372 33552 ft 504 kts 107°
2026-05-07 15:00 50.22385 5.93652 34011 ft 503 kts 105°
2026-05-07 15:00 50.21515 5.98955 34389 ft 503 kts 104°
2026-05-07 15:01 50.20662 6.04245 34810 ft 501 kts 104°
2026-05-07 15:01 50.19803 6.09529 35191 ft 501 kts 105°
2026-05-07 15:01 50.19010 6.14760 35524 ft 501 kts 101°
2026-05-07 15:01 50.18591 6.20163 35832 ft 502 kts 93°
2026-05-07 15:02 50.18643 6.25620 36145 ft 502 kts 87°
2026-05-07 15:02 50.18891 6.31058 36447 ft 502 kts 85°
2026-05-07 15:02 50.19212 6.36514 36758 ft 503 kts 85°
2026-05-07 15:02 50.19557 6.41880 37067 ft 503 kts 84°
2026-05-07 15:03 50.19914 6.47312 37412 ft 502 kts 84°
2026-05-07 15:03 50.20265 6.52740 37777 ft 501 kts 85°
2026-05-07 15:03 50.20606 6.58152 38054 ft 502 kts 85°
2026-05-07 15:03 50.20939 6.63580 38310 ft 503 kts 85°
2026-05-07 15:04 50.21270 6.69026 38575 ft 503 kts 85°
2026-05-07 15:04 50.21597 6.74480 38789 ft 504 kts 85°
2026-05-07 15:04 50.21917 6.79898 39007 ft 504 kts 85°
2026-05-07 15:04 50.22057 6.85400 39229 ft 503 kts 93°
2026-05-07 15:05 50.21887 6.90843 39458 ft 502 kts 95°
2026-05-07 15:05 50.21648 6.96237 39666 ft 502 kts 95°
2026-05-07 15:05 50.21371 7.01670 39849 ft 502 kts 96°
2026-05-07 15:05 50.21075 7.07101 40028 ft 502 kts 96°
2026-05-07 15:06 50.20773 7.12533 40195 ft 502 kts 96°
2026-05-07 15:06 50.20470 7.17972 40381 ft 502 kts 96°
2026-05-07 15:06 50.20169 7.23404 40560 ft 503 kts 96°
2026-05-07 15:06 50.19867 7.28852 40745 ft 503 kts 96°
2026-05-07 15:07 50.19569 7.34236 40906 ft 503 kts 96°
2026-05-07 15:07 50.19192 7.39674 41018 ft 503 kts 98°
2026-05-07 15:07 50.18190 7.50457 41042 ft 503 kts 100°
2026-05-07 15:08 50.17130 7.61272 41041 ft 503 kts 100°
2026-05-07 15:08 50.16109 7.72085 41046 ft 504 kts 99°
2026-05-07 15:09 50.15106 7.82909 41042 ft 504 kts 99°
2026-05-07 15:09 50.14103 7.93686 41049 ft 505 kts 99°
2026-05-07 15:10 50.13080 8.04557 41047 ft 505 kts 99°
2026-05-07 15:10 50.12055 8.15320 41046 ft 505 kts 100°
2026-05-07 15:11 50.11013 8.26152 41040 ft 505 kts 100°
2026-05-07 15:11 50.09962 8.36966 41045 ft 505 kts 100°
2026-05-07 15:12 50.08900 8.47786 41047 ft 505 kts 100°
2026-05-07 15:12 50.07830 8.58576 41049 ft 505 kts 100°
2026-05-07 15:13 50.06748 8.69384 41048 ft 505 kts 100°
2026-05-07 15:13 50.05826 8.80251 41049 ft 507 kts 93°
2026-05-07 15:14 50.05827 8.91171 41049 ft 507 kts 90°
2026-05-07 15:14 50.06007 9.02155 41050 ft 507 kts 89°
2026-05-07 15:15 50.06203 9.13149 41056 ft 507 kts 89°
2026-05-07 15:15 50.06374 9.24128 41050 ft 507 kts 90°
2026-05-07 15:16 50.06524 9.35057 41047 ft 507 kts 90°
2026-05-07 15:16 50.06661 9.46017 41048 ft 507 kts 90°
2026-05-07 15:17 50.06788 9.57027 41045 ft 507 kts 90°
2026-05-07 15:17 50.06906 9.68013 41045 ft 507 kts 90°
2026-05-07 15:18 50.07012 9.78964 41042 ft 508 kts 90°
2026-05-07 15:18 50.07109 9.89969 41043 ft 508 kts 90°
2026-05-07 15:19 50.07195 10.00976 41043 ft 508 kts 90°
2026-05-07 15:19 50.07271 10.11983 41036 ft 508 kts 90°
2026-05-07 15:20 50.07336 10.22940 41039 ft 509 kts 91°
2026-05-07 15:20 50.07396 10.33985 41038 ft 509 kts 91°
2026-05-07 15:21 50.07446 10.44973 41037 ft 509 kts 91°
2026-05-07 15:21 50.07486 10.56003 41031 ft 509 kts 91°
2026-05-07 15:22 50.07515 10.66970 41033 ft 509 kts 91°
2026-05-07 15:22 50.07537 10.78012 41032 ft 509 kts 91°
2026-05-07 15:23 50.07541 10.88961 41037 ft 509 kts 91°
2026-05-07 15:23 50.07530 10.99989 41028 ft 509 kts 91°
2026-05-07 15:24 50.07511 11.11041 41030 ft 509 kts 91°
2026-05-07 15:24 50.07482 11.22080 41021 ft 509 kts 91°
2026-05-07 15:25 50.07450 11.33043 41017 ft 509 kts 92°
2026-05-07 15:25 50.07398 11.44090 41020 ft 509 kts 92°
2026-05-07 15:26 50.07337 11.55145 41027 ft 510 kts 92°
2026-05-07 15:26 50.07270 11.66094 41023 ft 510 kts 92°
2026-05-07 15:27 50.07199 11.77165 41022 ft 509 kts 92°
2026-05-07 15:27 50.07116 11.88199 41018 ft 510 kts 92°
2026-05-07 15:28 50.07022 11.99175 41010 ft 509 kts 92°
2026-05-07 15:28 50.06919 12.10201 41018 ft 509 kts 92°
2026-05-07 15:29 50.06796 12.21240 41012 ft 509 kts 93°
2026-05-07 15:29 50.06644 12.32259 41011 ft 509 kts 93°
2026-05-07 15:30 50.06490 12.43218 41002 ft 509 kts 92°
2026-05-07 15:30 50.06465 12.54256 41001 ft 509 kts 91°
2026-05-07 15:31 50.06487 12.65298 40996 ft 509 kts 91°
2026-05-07 15:31 50.06485 12.76271 40994 ft 509 kts 92°
2026-05-07 15:32 50.06456 12.87314 40994 ft 509 kts 92°
2026-05-07 15:32 50.06411 12.98361 40993 ft 510 kts 92°
2026-05-07 15:33 50.06355 13.09417 40990 ft 511 kts 92°
2026-05-07 15:33 50.06290 13.20432 40983 ft 511 kts 92°
2026-05-07 15:34 50.06216 13.31490 40982 ft 511 kts 92°
2026-05-07 15:34 50.06130 13.42528 41105 ft 511 kts 92°
2026-05-07 15:35 50.06083 13.48058 41003 ft 510 kts 92°
2026-05-07 15:35 50.06034 13.53588 40981 ft 511 kts 92°
2026-05-07 15:35 50.05927 13.64579 40982 ft 511 kts 92°
2026-05-07 15:36 50.05811 13.75608 40979 ft 511 kts 93°
2026-05-07 15:36 50.05682 13.86671 40979 ft 510 kts 93°
2026-05-07 15:37 50.05568 13.95853 40970 ft 510 kts 93°
2026-05-07 15:37 50.05422 14.06878 40960 ft 510 kts 93°
2026-05-07 15:38 50.05265 14.17928 40973 ft 510 kts 93°
2026-05-07 15:38 50.05098 14.28911 40947 ft 510 kts 93°
2026-05-07 15:39 50.04932 14.39229 40968 ft 510 kts 94°
2026-05-07 15:39 50.04744 14.50279 40969 ft 511 kts 94°
2026-05-07 15:40 50.04546 14.61280 40966 ft 511 kts 94°
2026-05-07 15:40 50.04337 14.72340 40965 ft 511 kts 94°
2026-05-07 15:41 50.04118 14.83397 40967 ft 511 kts 94°
2026-05-07 15:41 50.03888 14.94422 40960 ft 511 kts 94°
2026-05-07 15:42 50.03647 15.05495 40962 ft 511 kts 94°
2026-05-07 15:42 50.03397 15.16500 40961 ft 511 kts 94°
2026-05-07 15:43 50.03135 15.27553 40957 ft 511 kts 95°
2026-05-07 15:43 50.02862 15.38633 40955 ft 512 kts 95°
2026-05-07 15:44 50.02581 15.49645 40956 ft 512 kts 95°
2026-05-07 15:44 50.02287 15.60716 40939 ft 512 kts 95°
2026-05-07 15:45 50.01983 15.71781 40931 ft 512 kts 95°
2026-05-07 15:45 50.01667 15.82891 40939 ft 512 kts 95°
2026-05-07 15:46 50.01176 15.99447 40947 ft 512 kts 95°
2026-05-07 15:47 50.00835 16.10533 40950 ft 512 kts 95°
2026-05-07 15:47 50.00485 16.21549 40944 ft 513 kts 96°
2026-05-07 15:48 50.00121 16.32633 40942 ft 513 kts 96°
2026-05-07 15:48 49.99748 16.43714 40946 ft 513 kts 96°
2026-05-07 15:49 49.99366 16.54754 40844 ft 512 kts 96°
2026-05-07 15:49 49.99170 16.60295 40608 ft 512 kts 96°
2026-05-07 15:49 49.98975 16.65752 40331 ft 512 kts 96°
2026-05-07 15:49 49.98775 16.71285 39690 ft 512 kts 96°
2026-05-07 15:50 49.98571 16.76814 38961 ft 514 kts 97°
2026-05-07 15:50 49.98364 16.82365 38183 ft 515 kts 97°
2026-05-07 15:50 49.98155 16.87909 37455 ft 513 kts 97°
2026-05-07 15:50 49.97946 16.93427 36768 ft 510 kts 97°
2026-05-07 15:51 49.97734 16.98927 36071 ft 508 kts 98°
2026-05-07 15:51 49.97520 17.04395 35354 ft 506 kts 98°
2026-05-07 15:51 49.97304 17.09862 34572 ft 505 kts 99°
2026-05-07 15:51 49.97085 17.15334 33747 ft 505 kts 99°
2026-05-07 15:52 49.96863 17.20787 32834 ft 505 kts 99°
2026-05-07 15:52 49.96639 17.26237 31977 ft 504 kts 100°
2026-05-07 15:52 49.96415 17.31647 31086 ft 503 kts 100°
2026-05-07 15:52 49.96188 17.37037 30183 ft 504 kts 100°
2026-05-07 15:53 49.95956 17.42467 29143 ft 504 kts 100°
2026-05-07 15:53 49.95721 17.47907 28322 ft 500 kts 100°
2026-05-07 15:53 49.95494 17.53197 27696 ft 493 kts 100°
2026-05-07 15:53 49.95265 17.58492 27028 ft 486 kts 100°
2026-05-07 15:54 49.95035 17.63710 26382 ft 481 kts 100°
2026-05-07 15:54 49.94804 17.68873 25723 ft 477 kts 100°
2026-05-07 15:54 49.94572 17.73978 25078 ft 472 kts 100°
2026-05-07 15:54 49.94340 17.79053 24430 ft 468 kts 100°
2026-05-07 15:55 49.94107 17.84064 23788 ft 463 kts 100°
2026-05-07 15:55 49.93877 17.88976 23108 ft 459 kts 100°
2026-05-07 15:55 49.93647 17.93879 22428 ft 454 kts 99°
2026-05-07 15:55 49.93467 17.98759 21833 ft 451 kts 95°
2026-05-07 15:56 49.93800 18.03607 21355 ft 452 kts 82°
2026-05-07 15:56 49.94885 18.08184 20751 ft 456 kts 65°
2026-05-07 15:56 49.96650 18.12297 20090 ft 456 kts 55°
2026-05-07 15:56 49.98582 18.16190 19432 ft 455 kts 54°
2026-05-07 15:57 50.00537 18.20067 18768 ft 453 kts 53°
2026-05-07 15:57 50.02373 18.23962 18104 ft 450 kts 57°
2026-05-07 15:57 50.04123 18.27969 17385 ft 446 kts 57°
2026-05-07 15:57 50.05850 18.31940 16732 ft 440 kts 57°
2026-05-07 15:58 50.07564 18.35857 16077 ft 434 kts 57°
2026-05-07 15:58 50.09266 18.39735 15432 ft 429 kts 57°
2026-05-07 15:58 50.10943 18.43547 14773 ft 424 kts 57°
2026-05-07 15:58 50.12611 18.47318 14100 ft 419 kts 56°
2026-05-07 15:59 50.14393 18.50812 13621 ft 412 kts 51°
2026-05-07 15:59 50.16277 18.54238 13270 ft 411 kts 50°
2026-05-07 15:59 50.18124 18.57577 12905 ft 410 kts 50°
2026-05-07 15:59 50.19985 18.60945 12537 ft 408 kts 50°
2026-05-07 16:00 50.21839 18.64303 12175 ft 406 kts 50°
2026-05-07 16:00 50.23810 18.67428 11825 ft 405 kts 40°
2026-05-07 16:00 50.26017 18.70205 11578 ft 401 kts 38°
2026-05-07 16:00 50.28176 18.72817 11373 ft 384 kts 37°
2026-05-07 16:01 50.30250 18.75325 11154 ft 367 kts 38°
2026-05-07 16:01 50.32188 18.77679 10936 ft 338 kts 38°
2026-05-07 16:01 50.33951 18.79827 10704 ft 314 kts 37°
2026-05-07 16:01 50.35655 18.81905 10490 ft 312 kts 37°
2026-05-07 16:02 50.37349 18.84047 10258 ft 313 kts 42°
2026-05-07 16:02 50.38626 18.86758 9989 ft 310 kts 68°
2026-05-07 16:02 50.39038 18.90005 9660 ft 302 kts 91°
2026-05-07 16:02 50.39036 18.93301 9406 ft 301 kts 94°
2026-05-07 16:03 50.38990 18.96577 9192 ft 300 kts 94°
2026-05-07 16:03 50.38950 18.99846 8974 ft 300 kts 93°
2026-05-07 16:03 50.38924 19.03078 8764 ft 299 kts 93°
2026-05-07 16:03 50.38897 19.06325 8553 ft 297 kts 93°
2026-05-07 16:04 50.38871 19.09569 8339 ft 297 kts 92°
2026-05-07 16:04 50.38847 19.12808 8128 ft 296 kts 92°
2026-05-07 16:04 50.38829 19.16033 7921 ft 295 kts 92°
2026-05-07 16:04 50.38808 19.19212 7712 ft 294 kts 92°
2026-05-07 16:05 50.38786 19.22420 7503 ft 293 kts 92°
2026-05-07 16:05 50.38763 19.25608 7295 ft 292 kts 92°
2026-05-07 16:05 50.38748 19.28756 7138 ft 283 kts 92°
2026-05-07 16:05 50.38728 19.31780 6992 ft 271 kts 92°
2026-05-07 16:06 50.38708 19.34700 6767 ft 263 kts 92°
2026-05-07 16:06 50.38689 19.37539 6577 ft 257 kts 92°
2026-05-07 16:06 50.38668 19.40298 6373 ft 256 kts 92°
2026-05-07 16:06 50.38650 19.43096 6149 ft 256 kts 91°
2026-05-07 16:07 50.38647 19.45875 6001 ft 253 kts 89°
2026-05-07 16:07 50.39030 19.48552 5870 ft 254 kts 62°
2026-05-07 16:07 50.40209 19.50520 5716 ft 245 kts 27°
2026-05-07 16:07 50.41776 19.51224 5592 ft 231 kts
2026-05-07 16:08 50.43361 19.51297 5388 ft 224 kts 356°
2026-05-07 16:08 50.44892 19.51122 5241 ft 217 kts 345°
2026-05-07 16:08 50.46217 19.50165 5065 ft 211 kts 315°
2026-05-07 16:08 50.47018 19.48290 4997 ft 206 kts 293°
2026-05-07 16:09 50.47410 19.46132 4692 ft 204 kts 276°
2026-05-07 16:09 50.47505 19.43923 4348 ft 203 kts 270°
2026-05-07 16:09 50.47518 19.41711 4115 ft 202 kts 269°
2026-05-07 16:09 50.47521 19.39497 4038 ft 203 kts 269°
2026-05-07 16:10 50.47524 19.37306 4041 ft 202 kts 269°
2026-05-07 16:10 50.47529 19.35112 4027 ft 196 kts 270°
2026-05-07 16:10 50.47537 19.33040 3909 ft 184 kts 270°
2026-05-07 16:10 50.47546 19.31048 3668 ft 181 kts 270°
2026-05-07 16:11 50.47550 19.29057 3413 ft 181 kts 270°
2026-05-07 16:11 50.47555 19.27147 3170 ft 170 kts 270°
2026-05-07 16:11 50.47558 19.25360 2951 ft 157 kts 271°
2026-05-07 16:11 50.47562 19.23714 2749 ft 143 kts 271°
2026-05-07 16:12 50.47566 19.22213 2545 ft 133 kts 271°
2026-05-07 16:12 50.47569 19.20780 2394 ft 132 kts 273°
2026-05-07 16:12 50.47573 19.19337 2210 ft 133 kts 273°
2026-05-07 16:12 50.47573 19.17883 2059 ft 132 kts 273°
2026-05-07 16:13 50.47569 19.16442 1945 ft 134 kts 274°
2026-05-07 16:13 50.47571 19.14983 1683 ft 137 kts 272°
2026-05-07 16:13 50.47588 19.13477 1505 ft 139 kts 272°
2026-05-07 16:13 50.47583 19.11957 1249 ft 137 kts 273°
2026-05-07 16:14 50.47590 19.10440 1083 ft 141 kts 274°
2026-05-07 16:14 50.47583 19.08928 1008 ft 129 kts 272°
2026-05-07 16:14 50.47586 19.07642 1181 ft 131 kts 274°
2026-05-07 16:14 50.47596 19.06047 1905 ft 156 kts 275°
2026-05-07 16:15 50.47653 19.04273 2939 ft 170 kts 275°
2026-05-07 16:15 50.47736 19.02499 3799 ft 159 kts 271°
2026-05-07 16:15 50.47768 19.00734 4272 ft 168 kts 272°
2026-05-07 16:15 50.47795 18.98667 4190 ft 206 kts 270°
2026-05-07 16:16 50.47834 18.96413 4046 ft 202 kts 271°
2026-05-07 16:16 50.48210 18.94425 3987 ft 189 kts 302°
2026-05-07 16:16 50.49261 18.93251 3999 ft 191 kts 340°
2026-05-07 16:16 50.50588 18.93357 4005 ft 197 kts 19°
2026-05-07 16:17 50.51640 18.94739 4005 ft 202 kts 57°
2026-05-07 16:17 50.52038 18.96803 3996 ft 203 kts 84°
2026-05-07 16:17 50.52115 18.99035 3789 ft 203 kts 89°
2026-05-07 16:17 50.52138 19.01252 3542 ft 201 kts 89°
2026-05-07 16:18 50.52148 19.03423 3300 ft 200 kts 90°
2026-05-07 16:18 50.52154 19.05604 3062 ft 199 kts 90°
2026-05-07 16:18 50.52157 19.07800 2998 ft 201 kts 90°
2026-05-07 16:18 50.52154 19.10003 3003 ft 202 kts 90°
2026-05-07 16:19 50.52155 19.12200 2997 ft 200 kts 89°
2026-05-07 16:19 50.52153 19.14386 2999 ft 199 kts 90°
2026-05-07 16:19 50.52151 19.16561 2998 ft 199 kts 90°
2026-05-07 16:19 50.52144 19.18709 2994 ft 199 kts 90°
2026-05-07 16:20 50.52135 19.20816 3004 ft 201 kts 90°
2026-05-07 16:20 50.52123 19.23010 3002 ft 200 kts 89°
2026-05-07 16:20 50.52111 19.25182 3001 ft 198 kts 89°
2026-05-07 16:20 50.52282 19.27323 3019 ft 199 kts 67°
2026-05-07 16:21 50.53020 19.29110 3238 ft 198 kts 49°
2026-05-07 16:21 50.53914 19.30758 3494 ft 199 kts 46°
2026-05-07 16:21 50.54835 19.32386 3753 ft 199 kts 46°
2026-05-07 16:21 50.55767 19.34007 3997 ft 200 kts 46°
2026-05-07 16:22 50.56703 19.35644 4260 ft 202 kts 46°
2026-05-07 16:22 50.57649 19.37290 4519 ft 203 kts 46°
2026-05-07 16:22 50.58421 19.39150 4766 ft 206 kts 72°
2026-05-07 16:22 50.58688 19.41360 4973 ft 204 kts 84°
2026-05-07 16:23 50.58827 19.43562 5007 ft 206 kts 85°
2026-05-07 16:23 50.58949 19.45814 5008 ft 205 kts 86°
2026-05-07 16:23 50.59068 19.48052 5011 ft 206 kts 86°
2026-05-07 16:23 50.59185 19.50303 5012 ft 206 kts 86°
2026-05-07 16:24 50.59304 19.52545 5005 ft 205 kts 86°
2026-05-07 16:24 50.59380 19.54029 5015 ft 206 kts 86°
2026-05-07 16:24 50.59495 19.56277 5016 ft 205 kts 86°
2026-05-07 16:24 50.59604 19.58513 5016 ft 205 kts 86°
2026-05-07 16:25 50.59644 19.60757 5006 ft 206 kts 98°
2026-05-07 16:25 50.59054 19.62753 4916 ft 201 kts 135°
2026-05-07 16:25 50.57887 19.63791 4651 ft 193 kts 172°
2026-05-07 16:25 50.56623 19.63505 4397 ft 186 kts 209°
2026-05-07 16:26 50.55599 19.62304 4173 ft 183 kts 224°
2026-05-07 16:26 50.54673 19.60929 4016 ft 183 kts 226°
2026-05-07 16:26 50.53756 19.59529 4011 ft 184 kts 226°
2026-05-07 16:26 50.52845 19.58126 4014 ft 182 kts 226°
2026-05-07 16:27 50.51936 19.56724 4012 ft 183 kts 226°
2026-05-07 16:27 50.51029 19.55311 4011 ft 182 kts 226°
2026-05-07 16:27 50.50120 19.53911 4009 ft 182 kts 226°
2026-05-07 16:27 50.49229 19.52534 4013 ft 182 kts 226°
2026-05-07 16:28 50.48325 19.51130 4008 ft 182 kts 226°
2026-05-07 16:28 50.47648 19.49474 4011 ft 184 kts 257°
2026-05-07 16:28 50.47515 19.47504 4007 ft 181 kts 268°
2026-05-07 16:28 50.47514 19.45526 4007 ft 181 kts 270°
2026-05-07 16:29 50.47522 19.43551 4001 ft 180 kts 269°
2026-05-07 16:29 50.47528 19.41578 4013 ft 181 kts 269°
2026-05-07 16:29 50.47530 19.39602 3999 ft 181 kts 269°
2026-05-07 16:29 50.47532 19.37650 4001 ft 181 kts 269°
2026-05-07 16:30 50.47534 19.35671 4002 ft 181 kts 269°
2026-05-07 16:30 50.47537 19.33696 3970 ft 179 kts 270°
2026-05-07 16:30 50.47543 19.31755 3763 ft 176 kts 270°
2026-05-07 16:30 50.47548 19.29893 3502 ft 163 kts 270°
2026-05-07 16:31 50.47552 19.28185 3290 ft 150 kts 270°
2026-05-07 16:31 50.47556 19.26625 3102 ft 139 kts 270°
2026-05-07 16:31 50.47558 19.25149 2939 ft 132 kts 271°
2026-05-07 16:31 50.47567 19.23700 2783 ft 133 kts 272°
2026-05-07 16:32 50.47583 19.22265 2587 ft 132 kts 272°
2026-05-07 16:32 50.47577 19.20817 2434 ft 133 kts 271°
2026-05-07 16:32 50.47531 19.19361 2246 ft 133 kts 270°
2026-05-07 16:32 50.47518 19.17898 2040 ft 134 kts 276°
2026-05-07 16:33 50.47541 19.16454 1854 ft 134 kts 276°
2026-05-07 16:33 50.47576 19.14953 1601 ft 138 kts 277°
2026-05-07 16:33 50.47589 19.13426 1468 ft 148 kts 273°
2026-05-07 16:33 50.47584 19.11816 1248 ft 145 kts 273°
2026-05-07 16:34 50.47591 19.10276 1072 ft 138 kts 272°
2026-05-07 16:34 50.47598 19.08826 1007 ft 119 kts 270°
2026-05-07 16:34 50.47600 19.07833 1004 ft 65 kts 270°
2026-05-07 16:34 50.47601 19.07354 1007 ft 30 kts 268°
2026-05-07 16:35 50.47563 19.07071 1007 ft 27 kts 247°
2026-05-07 16:35 50.47507 19.06906 1005 ft 8 kts 240°
2026-05-07 16:35 50.47501 19.06890 1005 ft 0 kts 240°
2026-05-07 16:36 50.47492 19.06874 1009 ft 6 kts 230°
2026-05-07 16:36 50.47448 19.06855 1005 ft 5 kts 152°
2026-05-07 16:36 50.47431 19.06915 1006 ft 6 kts 101°
2026-05-07 16:37 50.47428 19.07022 1005 ft 13 kts 91°
2026-05-07 16:37 50.47427 19.07178 1005 ft 16 kts 90°
2026-05-07 16:37 50.47426 19.07365 1005 ft 18 kts 90°
2026-05-07 16:37 50.47425 19.07584 1005 ft 22 kts 90°
2026-05-07 16:38 50.47425 19.07831 1005 ft 24 kts 90°
2026-05-07 16:38 50.47424 19.08104 1004 ft 26 kts 90°
2026-05-07 16:38 50.47424 19.08399 1005 ft 28 kts 90°
2026-05-07 16:38 50.47424 19.08706 1005 ft 29 kts 90°
2026-05-07 16:39 50.47423 19.09020 1005 ft 28 kts 90°
2026-05-07 16:39 50.47423 19.09118 1005 ft 0 kts 90°
2026-05-07 16:39 50.47423 19.09150 1006 ft 9 kts 91°
2026-05-07 16:39 50.47422 19.09256 1005 ft 11 kts 91°
2026-05-07 16:40 50.47396 19.09370 1007 ft 12 kts 144°
2026-05-07 16:40 50.47313 19.09387 1008 ft 13 kts 179°
2026-05-07 16:40 50.47236 19.09451 1008 ft 14 kts 113°
2026-05-07 16:40 50.47229 19.09596 1005 ft 10 kts 89°
2026-05-07 16:41 50.47221 19.09673 1005 ft 2 kts 137°
2026-05-07 16:41 50.47207 19.09675 1005 ft 4 kts 168°
2026-05-07 16:41 50.47163 19.09681 1006 ft 5 kts 180°
2026-05-07 16:41 50.47147 19.09681 1006 ft 2 kts 180°
2026-05-07 16:42 50.47140 19.09681 1005 ft 0 kts 180°